sat.trackr.live / text

‹ back to catalog

COSMOS 2600

NORAD 67674 · 2026-023A

PAYLOAD ACTIVE UNKNOWN

§ Identity

Operator
Country
CIS
Launch date
2026-02-05
Launch site
PLMSC
Launch vehicle
Mass (kg)
RCS (m²)

External: N2YO · Heavens-Above · Gunter

§ Orbital elements

Epoch: 2026-05-24T15:29:47.793120Z

Period
90.98 min
Inclination
96.6491°
Eccentricity
0.0011854
Mean motion
15.82826367 rev/d
Perigee alt
314.5 km
Apogee alt
330.4 km
Semi-major
6,700.6 km
B*
1.1665e-4
RAAN
217.8073°
Arg perigee
181.3258°
Mean anomaly
178.7984°
Rev number
1,706

§ Raw data

COSMOS 26001 67674U 26023A   26144.64569205  .00024576  00000+0  11665-3 0  99922 67674  96.6491 217.8073 0011854 181.3258 178.7984 15.82826367 17068

JSON: /api/v1/satellites/67674 · /tle

For live sub-satellite position, see the globe view (requires WebGL).

§ Visibility from observer

Set your observer location to see the next 7 days of passes ≥ 10°. The values pass through the URL so the page stays shareable.

No JS? Fill the form by hand. The geolocation button needs JavaScript.